VK1ET-13 Weather Reports


time (UTC)temp
C
wind
direction
speed
KPH
gust
KPH
rain 1hr
cm
rain 24hr
cm
rain mn
cm
humidity
%
barometer
mb
20260509221529 7 301 1.6 3.2 0.00 0.00 0.00 98 1028.5
20260509220531 7 156 1.6 4.8 0.00 0.00 0.00 98 1028.4
20260509215527 6 191 1.6 4.8 0.00 0.00 0.00 99 1028.4
20260509214535 6 177 0.0 3.2 0.00 0.00 0.00 99 1028.3
20260509213525 6 66 1.6 3.2 0.00 0.00 0.00 99 1028.1
20260509212541 6 181 1.6 3.2 0.00 0.00 0.00 99 1028.0
20260509211524 6 206 0.0 6.4 0.00 0.00 0.00 99 1027.9
20260509210546 7 209 3.2 6.4 0.00 0.00 0.00 98 1027.6
20260509205521 7 199 1.6 3.2 0.00 0.00 0.00 97 1027.5
20260509204529 7 19 0.0 3.2 0.00 0.00 0.00 97 1027.3
20260509203517 6 65 0.0 3.2 0.00 0.00 0.00 98 1027.3
20260509202527 7 204 0.0 1.6 0.00 0.00 0.00 97 1027.1
20260509201544 6 145 1.6 3.2 0.00 0.00 0.00 98 1027.1
20260509200525 6 175 1.6 3.2 0.00 0.00 0.00 98 1026.9
20260509195534 7 359 4.8 6.4 0.00 0.00 0.00 97 1026.8
20260509194523 6 47 4.8 8.0 0.00 0.00 0.00 97 1026.7
20260509193533 6 24 3.2 8.0 0.00 0.00 0.00 97 1026.6
20260509192529 6 151 0.0 3.2 0.00 0.00 0.00 97 1026.5
20260509191532 6 307 1.6 4.8 0.00 0.00 0.00 98 1026.4
20260509190521 6 227 0.0 3.2 0.00 0.00 0.00 98 1026.1
20260509185536 6 164 1.6 4.8 0.00 0.00 0.00 97 1026.0
20260509184520 6 16 3.2 4.8 0.00 0.00 0.00 97 1026.1
20260509183529 6 19 0.0 3.2 0.00 0.00 0.00 98 1025.9
20260509182517 6 24 0.0 3.2 0.00 0.00 0.00 98 1025.9
20260509181534 6 193 1.6 3.2 0.00 0.00 0.00 97 1025.8
20260509180536 6 206 1.6 3.2 0.00 0.00 0.00 98 1025.8
20260509175525 6 176 1.6 4.8 0.00 0.00 0.00 98 1025.7
20260509174534 7 200 4.8 6.4 0.00 0.00 0.00 98 1025.6
20260509173530 7 191 4.8 8.0 0.00 0.00 0.00 98 1025.6
20260509172532 7 196 1.6 4.8 0.00 0.00 0.00 97 1025.7
20260509171521 7 6 0.0 3.2 0.00 0.00 0.00 97 1025.7
20260509170539 7 9 1.6 6.4 0.00 0.00 0.00 97 1025.7
20260509165521 7 11 3.2 8.0 0.00 0.00 0.00 97 1025.7
20260509164530 7 22 3.2 6.4 0.00 0.00 0.00 97 1025.7
20260509163519 7 8 3.2 6.4 0.00 0.00 0.00 97 1025.7
20260509162528 7 351 3.2 6.4 0.00 0.00 0.00 97 1025.5
20260509161517 7 195 1.6 3.2 0.00 0.00 0.00 97 1025.5
20260509160527 7 202 1.6 3.2 0.00 0.00 0.00 97 1025.6
20260509155538 7 169 3.2 4.8 0.00 0.00 0.00 97 1025.7
20260509154540 8 142 1.6 4.8 0.00 0.00 0.00 97 1025.7
20260509153534 8 163 3.2 6.4 0.00 0.00 0.00 97 1025.8
20260509152524 8 146 1.6 4.8 0.00 0.00 0.00 96 1025.9
20260509151533 8 94 1.6 3.2 0.00 0.00 0.00 96 1025.7
20260509150536 8 57 1.6 4.8 0.00 0.00 0.00 96 1026.0
20260509145532 8 135 0.0 3.2 0.00 0.00 0.00 96 1025.7
20260509144527 8 36 1.6 4.8 0.00 0.00 0.00 96 1025.9
20260509143528 8 171 1.6 4.8 0.00 0.00 0.00 96 1025.7
20260509142518 8 177 1.6 4.8 0.00 0.00 0.00 95 1025.9
20260509141529 8 171 4.8 6.4 0.00 0.00 0.00 96 1025.9
20260509140517 8 175 4.8 8.0 0.00 0.00 0.00 96 1025.7
20260509135526 8 146 3.2 6.4 0.00 0.00 0.00 95 1025.8
20260509134536 9 162 3.2 6.4 0.00 0.00 0.00 95 1025.8
20260509133525 9 166 3.2 6.4 0.00 0.00 0.00 95 1025.8
20260509132535 9 169 3.2 6.4 0.00 0.00 0.00 94 1025.8
20260509131523 10 75 3.2 6.4 0.00 0.00 0.00 94 1025.9
20260509130533 10 186 3.2 6.4 0.00 0.00 0.00 93 1026.1
20260509125522 10 164 3.2 6.4 0.00 0.00 0.00 93 1026.1
20260509124532 10 162 4.8 8.0 0.00 0.00 0.00 92 1026.0
20260509123521 11 116 1.6 6.4 0.00 0.00 0.00 91 1026.0
20260509122537 11 0.0 0.0 0.00 0.00 0.00 91 1026.0
20260509121518 11 6 3.2 4.8 0.00 0.00 0.00 90 1026.0
20260509120527 11 0.0 1.6 0.00 0.00 0.00 89 1025.9
20260509115524 11 353 3.2 4.8 0.00 0.00 0.00 88 1026.0
20260509114526 11 79 0.0 1.6 0.00 0.00 0.00 88 1025.9
20260509113535 11 151 0.0 1.6 0.00 0.00 0.00 88 1026.0
20260509112531 11 0.0 0.0 0.00 0.00 0.00 88 1026.1
20260509111535 12 205 4.8 8.0 0.00 0.00 0.00 83 1025.9
20260509110523 12 0.0 1.6 0.00 0.00 0.00 82 1025.7
20260509105533 12 0.0 0.0 0.00 0.00 0.00 83 1025.7
20260509104522 12 0.0 1.6 0.00 0.00 0.00 83 1025.7
20260509103538 12 0.0 0.0 0.00 0.00 0.00 83 1025.5
20260509102519 12 0.0 0.0 0.00 0.00 0.00 82 1025.5
20260509101528 12 0.0 1.6 0.00 0.00 0.00 81 1025.4
20260509100518 12 30 0.0 1.6 0.00 0.00 0.00 84 1025.3
20260509095527 12 0.0 0.0 0.00 0.00 0.00 84 1025.3
20260509094537 12 0.0 0.0 0.00 0.00 0.00 82 1025.2
20260509093525 13 215 0.0 1.6 0.00 0.00 0.00 81 1025.1
20260509092536 13 0.0 0.0 0.00 0.00 0.00 81 1025.0
20260509091524 13 145 0.0 1.6 0.00 0.00 0.00 79 1025.1
20260509090533 13 0.0 1.6 0.00 0.00 0.00 78 1025.0
20260509085522 13 9 0.0 1.6 0.00 0.00 0.00 77 1024.9
20260509084539 13 0.0 1.6 0.00 0.00 0.00 76 1024.8
20260509083521 14 7 0.0 3.2 0.00 0.00 0.00 75 1024.7
20260509082532 14 0.0 1.6 0.00 0.00 0.00 74 1024.4
20260509081520 15 98 0.0 3.2 0.00 0.00 0.00 73 1024.3
20260509080529 15 26 0.0 4.8 0.00 0.00 0.00 72 1024.1
20260509075518 15 317 0.0 3.2 0.00 0.00 0.00 71 1023.9
20260509074527 15 353 1.6 3.2 0.00 0.00 0.00 69 1024.0
20260509073544 15 356 0.0 3.2 0.00 0.00 0.00 68 1023.9
20260509072525 16 0.0 1.6 0.00 0.00 0.00 67 1023.8
20260509071536 16 342 0.0 3.2 0.00 0.00 0.00 65 1023.6
20260509070524 17 334 1.6 6.4 0.00 0.00 0.00 64 1023.4
20260509065554 17 325 3.2 8.0 0.00 0.00 0.00 62 1023.3
20260509064522 17 325 3.2 6.4 0.00 0.00 0.00 61 1023.2
20260509063532 17 335 3.2 4.8 0.00 0.00 0.00 60 1023.3
20260509062520 17 331 4.8 8.0 0.00 0.00 0.00 60 1023.2
20260509061536 17 311 4.8 9.7 0.00 0.00 0.00 59 1023.1
20260509060519 18 320 6.4 9.7 0.00 0.00 0.00 59 1023.1
20260509055528 18 317 4.8 9.7 0.00 0.00 0.00 58 1023.0
20260509054536 17 298 8.0 12.9 0.00 0.00 0.00 58 1023.0
20260509053525 17 330 4.8 9.7 0.00 0.00 0.00 58 1023.0
20260509052542 18 257 4.8 9.7 0.00 0.00 0.00 56 1023.0
20260509051523 18 297 6.4 9.7 0.00 0.00 0.00 56 1023.0
20260509050540 17 161 1.6 4.8 0.00 0.00 0.00 56 1022.8
20260509045522 17 61 3.2 8.0 0.00 0.00 0.00 56 1022.8
20260509044532 17 305 4.8 6.4 0.00 0.00 0.00 56 1022.9
20260509043521 17 14 3.2 8.0 0.00 0.00 0.00 59 1023.0
20260509042530 17 65 4.8 11.3 0.00 0.00 0.00 58 1023.0
20260509041520 17 10 3.2 9.7 0.00 0.00 0.00 60 1023.1
20260509040529 17 292 6.4 12.9 0.00 0.00 0.00 60 1023.0
20260509035519 16 240 3.2 8.0 0.00 0.00 0.00 61 1023.2
20260509034527 17 10 4.8 9.7 0.00 0.00 0.00 61 1023.0
20260509033516 17 334 6.4 12.9 0.00 0.00 0.00 61 1023.1
20260509032525 17 348 4.8 14.5 0.00 0.00 0.00 62 1023.1
20260509031536 16 322 4.8 9.7 0.00 0.00 0.00 63 1023.2
20260509030525 16 292 4.8 12.9 0.00 0.00 0.00 63 1023.4
20260509025533 16 319 6.4 12.9 0.00 0.00 0.00 62 1023.4
20260509024522 16 348 4.8 12.9 0.00 0.00 0.00 62 1023.6
20260509023533 16 305 6.4 14.5 0.00 0.00 0.00 62 1023.7
20260509022522 16 327 8.0 16.1 0.00 0.00 0.00 61 1023.8
20260509021531 15 276 4.8 9.7 0.00 0.00 0.00 64 1024.0
20260509020520 15 270 4.8 11.3 0.00 0.00 0.00 64 1024.3
20260509015529 15 323 4.8 12.9 0.00 0.00 0.00 65 1024.3
20260509014518 15 108 4.8 6.4 0.00 0.00 0.00 64 1024.4
20260509013528 15 341 4.8 9.7 0.00 0.00 0.00 63 1024.5
20260509012517 14 315 4.8 6.4 0.00 0.00 0.00 67 1024.6
20260509011534 14 74 3.2 6.4 0.00 0.00 0.00 67 1024.6
20260509010542 12 297 3.2 8.0 0.00 0.00 0.00 73 1024.8
20260509005525 12 67 4.8 9.7 0.00 0.00 0.00 73 1024.8
20260509004534 12 336 4.8 9.7 0.00 0.00 0.00 78 1025.0
20260509003529 11 305 3.2 6.4 0.00 0.00 0.00 81 1025.0
20260509002531 11 298 3.2 8.0 0.00 0.00 0.00 83 1025.1
20260509001520 10 63 3.2 8.0 0.00 0.00 0.00 86 1025.1
20260509000530 10 61 3.2 6.4 0.00 0.00 0.00 90 1025.1
20260508235519 9 183 3.2 4.8 0.00 0.00 0.00 91 1025.4
20260508234529 9 54 3.2 6.4 0.00 0.00 0.00 93 1025.3
20260508233517 9 57 3.2 8.0 0.00 0.00 0.00 94 1025.2
20260508232527 10 68 4.8 9.7 0.00 0.00 0.00 92 1025.3
20260508231536 9 106 3.2 8.0 0.00 0.00 0.00 93 1025.4
20260508230525 9 117 4.8 9.7 0.00 0.00 0.00 95 1025.2
20260508225534 8 83 4.8 8.0 0.00 0.00 0.00 96 1025.2
20260508224538 8 67 4.8 6.4 0.00 0.00 0.00 97 1025.2
20260508222522 7 59 6.4 9.7 0.00 0.00 0.00 97 1025.0